Regional Weather Roundup
Issued by NWS

Home | Current Version | Previous Version | Text Only | Print | Product List | Glossary On
Versions: 1 2 3 4 5 6 7 8 9 10 11 12 13 14 15 16 17 18 19 20 21 22 23 24 25 26 27 28 29 30 31 32 33 34 35 36 37 38 39 40 41 42 43 44 45 46 47 48 49 50
000
ASUS43 KDTX 230510
RWRMI
MICHIGAN HOURLY REGIONAL WEATHER ROUNDUP
NATIONAL WEATHER SERVICE DETROIT/PONTIAC MI
1200 AM EST TUE DEC 23 2014

NOTE: "FAIR" INDICATES FEW OR NO CLOUDS BELOW 12,000 FEET WITH NO
SIGNIFICANT WEATHER AND/OR OBSTRUCTION TO VISIBILITY.

MIZ047>049-052>055-059>063-066>070-074>076-081>083-230600-
SOUTHEAST LOWER MICHIGAN

CITY           SKY/WX    TMP DP  RH WIND       PRES   REMARKS
ADRIAN         CLOUDY    36  34  92 E9        29.81S
ALMA           LGT RAIN  33  32  97 E9        29.85S
ANN ARBOR      CLOUDY    37  34  89 E8        29.83F
BAD AXE        MIX PCPN  34  32  94 SE6       29.92S
DETROIT CITY   CLOUDY    39  32  76 E12       29.87F
DETROIT        CLOUDY    38  33  82 E8        29.85F
FLINT          LGT RAIN  37  32  82 E10       29.86F
GROSSE ILE     CLOUDY    39  34  81 E6        29.84S
HILLSDALE      LGT RAIN  38  37  96 E12       29.76F
HOWELL         CLOUDY    35  33  94 E9        29.81F FOG

CITY           SKY/WX    TMP DP  RH WIND       PRES   REMARKS
JACKSON        CLOUDY    36  33  89 E10       29.79F FOG
LAMBERTVILLE   CLOUDY    37  34  87 E8        29.82S
LANSING        CLOUDY    35  32  88 E10       29.81F FOG
LAPEER         NOT AVBL
MASON          CLOUDY    35  32  90 E9        29.81S FOG
MONROE         CLOUDY    37  34  87 E12       29.82S
MT. CLEMENS    CLOUDY    37  37  99 E6        29.87F
PONTIAC        LGT RAIN  34  32  92 E9        29.84F
PORT HOPE        N/A     36  30  79 SE13      29.92F
PORT HURON     MOCLDY    36  32  87 E7        29.91S
TRI CITIES     LGT RAIN  35  30  82 E10       29.88F
YPSILANTI      CLOUDY    40  33  76 E9        29.85F
$$
MIZ043>046-050>051-056>058-064>065-071>073-077>080-230600-
SOUTHWEST LOWER MICHIGAN

CITY           SKY/WX    TMP DP  RH WIND       PRES   REMARKS
BATTLE CREEK   CLOUDY    37  34  89 E7        29.75F FOG
BENTON HARBOR  CLOUDY    38  37  97 E16       29.68F FOG
BIG RAPIDS     LGT SNOW  33  33 100 E8        29.81F
COLDWATER      CLOUDY    37  35  90 E7        29.74F
HOLLAND        LGT RAIN  38  36  92 E15       29.74F FOG
GRAND RAPIDS   LGT RAIN  35  33  92 E17       29.77F FOG
KALAMAZOO      LGT RAIN  38  35  89 E8        29.74F FOG
MARSHALL       DRIZZLE   36  34  93 E8        29.76F
MUSKEGON       LGT RAIN  37  34  89 E14       29.75F FOG
$$
MIZ016>042-230600-
NORTHERN LOWER MICHIGAN

CITY           SKY/WX    TMP DP  RH WIND       PRES   REMARKS
ALPENA         CLOUDY    34  30  85 E8        29.95F
BEAVER ISLAND  LGT SNOW  32  30  93 E13       29.90F
BELLAIRE       LGT SNOW  33  30  89 E5        29.89S
CADILLAC       MIX PCPN  31  30  96 E12G20    29.81F
CHARLEVOIX     LGT SNOW  32  31  96 E13       29.92S
FRANKFORT      LGT RAIN  33  32  96 SE7       29.80S
GAYLORD        LGT SNOW  30  28  92 E7        29.88S FOG
GRAYLING       LGT SNOW  31  30  98 E8        29.88F
HARBOR SPRINGS LGT SNOW  31  29  93 E12       29.91F
HOUGHTON LAKE  CLOUDY    32  29  88 E12       29.86F FOG
MANISTEE       CLOUDY    34  30  86 E14       29.78F
OSCODA         CLOUDY    35  32  88 E9        29.93F FOG
PELLSTON       LGT SNOW  32  28  85 E9        29.93F FOG
TRAVERSE CITY  LGT RAIN  34  30  85 E6        29.84F
$$
MIZ007>008-015-230600-
EASTERN UPPER MICHIGAN

CITY           SKY/WX    TMP DP  RH WIND       PRES   REMARKS
KINROSS        CLOUDY    32  28  86 E13G20    29.96S
MACKINAC ISLAN CLOUDY    34  28  80 SE10G20   29.94F
NEWBERRY       CLOUDY    31  29  92 E9        29.92F
S. S. MARIE    CLOUDY    32  26  78 E8G17     29.97R
$$
MIZ004>006-011>014-085-230600-
CENTRAL UPPER MICHIGAN

CITY           SKY/WX    TMP DP  RH WIND       PRES   REMARKS
MANISTIQUE     LGT SNOW  32  31  96 E14G21    29.88F
ESCANABA       CLOUDY    34  30  86 E15       29.83S
MENOMINEE      CLOUDY    34  32  93 E13       29.77F
SAWYER-GWINN   LGT SNOW  31  28  91 SE8       29.83F
$$
MIZ001>003-009>011-084-230600-
WESTERN UPPER MICHIGAN

CITY           SKY/WX    TMP DP  RH WIND       PRES   REMARKS
IRON MOUNTAIN  LGT SNOW  32  30  92 E7        29.77F FOG
HOUGHTON       LGT SNOW  32  30  92 E9        29.82S VSB 3/4
COPPER HARBOR    N/A     35  30  82 S10G21    29.85R
IRONWOOD       CLOUDY    34  30  86 E10       29.72R
$$

ABBREVIATIONS USED IN REMARKS
   TC - TEMPERATURE IN CELSIUS
  WCI - WIND CHILL INDEX
   HX - HEAT INDEX
  VSB - VISIBILITY




USA.gov is the U.S. government's official web portal to all federal, state and local government web resources and services.